Tracking 19709 objects as of 21-Jun-2019
HD Live streaming from Space Station
objects crossing your sky now

FENGYUN 1C DEB

Track FENGYUN 1C DEB now!
10-day predictions


NORAD ID: 31683
Int'l Code: 1999-025CCR
Perigee: 706.9 km
Apogee: 808.3 km
Inclination: 98.7 °
Period: 99.8 minutes
Semi major axis: 7128 km
RCS: 0.0138 m2 (small)
Launch date: May 10, 1999
Source: People's Republic of China (PRC)
Launch site: Taiyaun Space Center, China (TSC)

Note: This is SATELLITE DEBRIS
aabbcc
Your satellite tracking list
Your tracking list is empty




NASA's NSSDC Master Catalog

Two Line Element Set (TLE):
1 31683U 99025CCR 19170.27280460 +.00000851 +00000-0 +26368-3 0  9995
2 31683 098.7409 195.5657 0071155 248.9092 110.4478 14.42443235315906
Source of the keplerian elements: AFSPC